Location: *
(41.7492°S, 135.4150°W)
Time: 17:39:30
(UTC+00:00)

Cosmos 1655 Rocket - Pass Details

Date: 20 September 2021
Orbit: 969 x 1007 km, 83.0° (Epoch: 15 October)

Event Time Altitude Azimuth Distance (km) Brightness Sun altitude
Rises 13:37:21 0° 343° (NNW) 3,677 6.7 -14.9°
Reaches altitude 10° 13:39:53 10° 339° (NNW) 2,742 6.0 -14.5°
Maximum altitude 13:46:06 60° 259° (W) 1,139 4.1 -13.4°
Drops below altitude 10° 13:52:27 10° 179° (S) 2,801 6.5 -12.2°
Sets 13:55:05 0° 175° (S) 3,761 7.3 -11.7°
